Погода в Васкелове

Россия / Санкт-Петербург и Ленинградская область     60°22′34″N   30°21′28″E
темп.,
°C
ветер,
м/с
пор.,
м/с
влажн.,
%
обл.,
%
осадки,
мм/ч
давл.,
гПа
погр.,
м
3 августа, вт
вт300:00+14с4899100 19.5 993566
03:00+13сз61298100 27.0 993778
06:00+13з61296100 4.6 994846
09:00+15зюз5118917 4.6 995925
12:00+17зюз611804 0.9 9971143
15:00+17зюз5107924 2.7 9991285
18:00+14з510905 1.9 1002905
21:00+12з512816 2.0 1004772
4 августа, ср
ср400:00+9з39820 0.0 1007247
03:00+9зюз311860 0.0 1008288
06:00+10зюз310760 0.0 1010254
09:00+16зюз48530 0.0 1011769
12:00+19з56366 0.0 10122412
15:00+20з453534 0.0 10132543
18:00+17з375099 0.0 1014615
21:00+14зюз276699 0.0 1015165
5 августа, чт
чт500:00+13юз2672100 0.0 1016128
03:00+13юз2676100 0.0 1017149
06:00+13юз1377100 0.0 101781
09:00+15юз1269100 0.0 1018188
12:00+19ююв124621 0.0 10181027
15:00+20в1140100 0.0 10171664
18:00+19в244471 0.0 1018538
21:00+14всв236595 0.0 101870
6 августа, пт
пт600:00+12всв22743 0.0 101843
03:00+11ссв22782 0.0 101832
06:00+11св28915 0.0 1017194
09:00+16всв466564 0.0 1017455
12:00+19всв47535 0.0 1017817
15:00+20всв59421 0.0 10161567
18:00+20св59435 0.0 10151068
21:00+17всв5135187 0.0 1015690
7 августа, сб
сб700:00+15всв51367100 0.0 1015493
03:00+14в41476100 0.0 1014622
06:00+14в61476100 0.0 1014945
09:00+16в7157088 0.0 10131033
12:00+13в71493100 2.3 1013865
15:00+13в71494100 3.6 1012988
18:00+13в61395100 0.8 1011868
21:00+14в51297100 2.8 1010735